Content
SEND FEEDBACK

Daily
Averages
Monthly
Summary
United States of America

MERIZO, GUAM


Home > North America > United States > Guam
Elevation: 10 feet     Latitude: 13 14N     Longitude: 144 39E

WEATHER
 
SELECT A DAY
Number of Records: 350,124;   Date Range: 1/1/95 - 9/28/14
 
SHARE

PRINT THIS DATA

[ ← Previous Day ]
WEATHER ALMANAC - AUGUST 1, 2013
[ Next Day → ]
[ °C ]   °F
Weather ElementAverageHighLow
Temperature79 °F83.8 °F (3:55 pm)75.2 °F (5:50 am)
Dewpoint75 °F77 °F (8:02 am)71.1 °F (5:55 am)
Humidity87.6 %100 % (8:02 am)75 % (3:55 pm)
Barometer29.83 in29.88 in (8:23 am)29.75 in (1:55 pm)
Wind Speed10.8 mph17.3 mph (8:28 am)
Wind Gust21.9 mph (8:23 am)
Weather ElementAverage
Visibility8.6 mi
Wind DirectionESE (117 °)

Weather ElementTotal
Precipitation0.22 in
Cooling Degree Days14.5 (Base 65)
Growing Degree Days29.5 (Base 50)
Averaged from 82 records on August 1, 2013
WEATHER CONDITIONS BREAKOUT
WIND DIRECTION BREAKOUT
WEATHER BY HOUR - AUGUST 1, 2013
[ °C ]   °F
Local TimeTemperatureDewpointHumidityBarometerVisibilityWind DirectionWind SpeedGust SpeedPrecipitationEventsConditions
1:55 AM80.4 °F74.8 °F83 %29.79 in10.0 miEast (80°)9.2 mphPartly Cloudy
2:55 AM80.4 °F75.0 °F84 %29.78 in10.0 miENE (70°)8.1 mphScattered Clouds
3:17 AM80.6 °F75.2 °F84 %29.78 in10.0 miEast (80°)11.5 mphMostly Cloudy
3:22 AM80.6 °F75.2 °F84 %29.78 in10.0 miEast (80°)10.4 mphScattered Clouds
3:32 AM80.6 °F75.2 °F84 %29.78 in10.0 miENE (70°)11.5 mphMostly Cloudy
3:39 AM80.6 °F75.2 °F84 %29.79 in10.0 miEast (80°)11.5 mphScattered Clouds
3:50 AM80.6 °F75.2 °F84 %29.79 in10.0 miEast (90°)11.5 mphMostly Cloudy
3:55 AM81.1 °F75.7 °F84 %29.79 in10.0 miEast (90°)12.7 mphMostly Cloudy
4:00 AM80.6 °F75.2 °F84 %29.79 in10.0 miEast (90°)11.5 mphScattered Clouds
4:44 AM80.6 °F75.2 °F84 %29.80 in10.0 miENE (70°)9.2 mphMostly Cloudy
4:46 AM80.6 °F75.2 °F84 %29.80 in10.0 miEast (80°)10.4 mphMostly Cloudy
4:51 AM80.6 °F75.2 °F84 %29.80 in10.0 miEast (80°)10.4 mphMostly Cloudy
4:53 AM80.6 °F75.2 °F84 %29.80 in10.0 miEast (90°)9.2 mphScattered Clouds
4:55 AM81.0 °F75.2 °F83 %29.80 in10.0 miEast (90°)9.2 mphScattered Clouds
4:59 AM80.6 °F75.2 °F84 %29.80 in10.0 miEast (90°)6.9 mphMostly Cloudy
5:14 AM80.6 °F75.2 °F84 %29.81 in10.0 miEast (80°)9.2 mphMostly Cloudy
5:17 AM80.6 °F75.2 °F84 %29.81 in10.0 miEast (90°)9.2 mphMostly Cloudy
5:32 AM80.6 °F73.4 °F79 %29.81 in9.0 miEast (80°)6.9 mphRainLight Rain
5:50 AM75.2 °F71.6 °F89 %29.81 in10.0 miENE (60°)4.6 mphMostly Cloudy
5:55 AM76.1 °F71.1 °F84 %29.81 in10.0 miENE (70°)4.6 mph0.04 inScattered Clouds
6:21 AM78.8 °F73.4 °F83 %29.82 in4.0 miSSE (160°)10.4 mphRainHeavy Rain
6:22 AM78.8 °F75.2 °F89 %29.82 in2.5 miSouth (180°)8.1 mphRainHeavy Rain
6:23 AM78.8 °F75.2 °F89 %29.83 in2.0 miSouth (190°)8.1 mphRainRain
6:26 AM77.0 °F75.2 °F94 %29.83 in1.8 miSE (140°)10.4 mphRainLight Rain
6:28 AM77.0 °F75.2 °F94 %29.83 in1.5 miSSE (150°)13.8 mph18.4 mphRainLight Rain
6:29 AM77.0 °F75.2 °F94 %29.83 in1.2 miSSE (150°)16.1 mphRainLight Rain
6:31 AM77.0 °F75.2 °F94 %29.83 in1.5 miSSE (160°)16.1 mphRainHeavy Rain
6:32 AM77.0 °F75.2 °F94 %29.83 in1.8 miSSE (160°)15.0 mphRainHeavy Rain
6:34 AM77.0 °F75.2 °F94 %29.83 in2.0 miSSE (160°)15.0 mphRainLight Rain
6:35 AM77.0 °F75.2 °F94 %29.83 in2.0 miSouth (170°)16.1 mphRainLight Rain
6:38 AM77.0 °F75.2 °F94 %29.84 in2.5 miSouth (170°)12.7 mphRainLight Rain
6:39 AM77.0 °F75.2 °F94 %29.84 in3.0 miSouth (170°)13.8 mphRainLight Rain
6:46 AM77.0 °F75.2 °F94 %29.84 in9.0 miSouth (170°)13.8 mphMostly Cloudy
6:47 AM77.0 °F75.2 °F94 %29.84 in9.0 miSouth (170°)13.8 mphMostly Cloudy
6:48 AM77.0 °F75.2 °F94 %29.84 in10.0 miSouth (170°)12.7 mphMostly Cloudy
6:52 AM77.0 °F75.2 °F94 %29.84 in10.0 miSouth (170°)11.5 mphMostly Cloudy
6:55 AM76.6 °F75.2 °F95 %29.84 in10.0 miSSE (160°)11.5 mph0.16 inMostly Cloudy
6:57 AM77.0 °F75.2 °F94 %29.84 in10.0 miSouth (170°)11.5 mphMostly Cloudy
6:58 AM77.0 °F75.2 °F94 %29.84 in10.0 miSouth (170°)10.4 mphMostly Cloudy
7:00 AM77.0 °F75.2 °F94 %29.84 in10.0 miSouth (180°)10.4 mphScattered Clouds
7:28 AM77.0 °F75.2 °F94 %29.86 in10.0 miSSE (160°)5.8 mphRainLight Rain
7:55 AM77.9 °F76.5 °F95 %29.86 in10.0 miESE (120°)9.2 mph0.01 inRainLight Rain
8:02 AM77.0 °F77.0 °F100 %29.87 in8.0 miESE (120°)9.2 mphPartly Cloudy
8:05 AM77.0 °F77.0 °F100 %29.87 in7.0 miSE (130°)11.5 mphPartly Cloudy
8:06 AM77.0 °F75.2 °F94 %29.87 in6.0 miSE (130°)11.5 mphRainLight Rain
8:13 AM77.0 °F75.2 °F94 %29.87 in7.0 miSE (130°)11.5 mphScattered Clouds
8:23 AM77.0 °F75.2 °F94 %29.88 in10.0 miESE (110°)16.1 mph21.9 mphRainLight Rain
8:28 AM77.0 °F75.2 °F94 %29.88 in9.0 miEast (80°)17.3 mph21.9 mphRainLight Rain
8:35 AM75.2 °F73.4 °F94 %29.86 in10.0 miEast (90°)6.9 mph21.9 mphMostly Cloudy
8:39 AM75.2 °F73.4 °F94 %29.86 in10.0 miEast (80°)9.2 mphScattered Clouds
8:51 AM75.2 °F73.4 °F94 %29.87 in10.0 miEast (90°)6.9 mphRainLight Rain
8:55 AM75.4 °F72.7 °F91 %29.87 in9.0 miSE (140°)4.6 mph0.01 inRainLight Rain
9:03 AM75.2 °F73.4 °F94 %29.87 in10.0 miSouth (190°)4.6 mphClear
9:55 AM79.0 °F74.7 °F87 %29.87 in10.0 miESE (110°)6.9 mph0.00 inClear
10:55 AM80.2 °F75.0 °F84 %29.86 in10.0 miEast (80°)12.7 mphMostly Cloudy
10:56 AM80.6 °F75.2 °F84 %29.86 in10.0 miEast (90°)13.8 mphMostly Cloudy
10:58 AM80.6 °F75.2 °F84 %29.86 in10.0 miEast (80°)13.8 mphMostly Cloudy
11:00 AM80.6 °F75.2 °F84 %29.86 in10.0 miENE (70°)13.8 mphMostly Cloudy
11:06 AM80.6 °F75.2 °F84 %29.86 in10.0 miENE (70°)12.7 mphMostly Cloudy
11:49 AM78.8 °F73.4 °F83 %29.82 in10.0 miEast (100°)11.5 mphScattered Clouds
11:55 AM79.0 °F74.7 °F87 %29.82 in10.0 miEast (80°)13.8 mphScattered Clouds
12:55 PM80.4 °F75.2 °F84 %29.80 in10.0 miNE (50°)9.2 mphPartly Cloudy
1:30 PM82.4 °F75.2 °F79 %29.78 in10.0 miNNE (30°)9.2 mphMostly Cloudy
1:33 PM82.4 °F75.2 °F79 %29.77 in10.0 miNNE (30°)8.1 mphMostly Cloudy
1:55 PM82.0 °F73.8 °F76 %29.75 in10.0 miNorth (360°)9.2 mphScattered Clouds
2:55 PM81.1 °F74.5 °F80 %29.75 in10.0 miNNW (340°)8.1 mphScattered Clouds
3:55 PM83.8 °F75.2 °F75 %29.75 in10.0 miNorth (360°)10.4 mphScattered Clouds
4:55 PM82.0 °F76.1 °F82 %29.78 in10.0 miENE (60°)11.5 mphClear
5:55 PM81.1 °F75.2 °F82 %29.80 in10.0 miENE (60°)12.7 mphClear
6:55 PM79.9 °F75.6 °F87 %29.82 in10.0 miENE (70°)8.1 mphClear
7:55 PM80.1 °F75.7 °F87 %29.83 in10.0 miEast (80°)9.2 mphOvercast
8:05 PM80.6 °F75.2 °F84 %29.83 in10.0 miEast (80°)10.4 mphOvercast
8:27 PM80.6 °F75.2 °F84 %29.84 in10.0 miEast (80°)11.5 mphOvercast
8:55 PM80.2 °F74.5 °F83 %29.85 in10.0 miEast (80°)11.5 mphOvercast
9:55 PM80.2 °F75.2 °F85 %29.86 in10.0 miEast (90°)10.4 mphMostly Cloudy
10:42 PM80.6 °F75.2 °F84 %29.88 in10.0 miEast (90°)11.5 mphMostly Cloudy
10:55 PM80.8 °F75.6 °F84 %29.88 in10.0 miEast (90°)11.5 mphMostly Cloudy
11:15 PM80.6 °F75.2 °F84 %29.88 in10.0 miEast (90°)12.7 mphMostly Cloudy
11:16 PM80.6 °F75.2 °F84 %29.88 in10.0 miEast (100°)11.5 mphMostly Cloudy
11:22 PM80.6 °F75.2 °F84 %29.88 in10.0 miEast (90°)15.0 mphMostly Cloudy
11:44 PM80.6 °F75.2 °F84 %29.88 in10.0 miEast (90°)11.5 mphOvercast
11:55 PM81.0 °F75.7 °F84 %29.87 in10.0 miEast (90°)12.7 mphOvercast
Hourly data recorded from PGUA, located miles away from Merizo, Guam







STORIES FROM OUR PARTNERS